Wichita Mid Continent Airport
KICT : rendu visible

Aérodrome :











RETROUVEZ-NOUS SUR...

 
LOGIN :

S'inscrire | Disclaimer

   EN    FR    IT 

 









Légende :    VFR   VFR Marginal   IFR   IFR Intensif   IFR Très Intensif
Visi : 
Plafond : 
>= 8 km
>= 3000ft
5 à 8 km
1000 à 3000 ft
1500m à 5 km
500 à 1000 ft
800 à 1500m
200 à 500 ft
< 800m
< 200 ft
Symboles :   Orages  Brouillard  Fortes neiges  Fortes précipitations  Vent > 20 kt






- Altitude de l'aérodrome : 1333 ft
- Code IATA : ICT


KICT - Wichita Mid Continent

DERNIER METAR :
  • 041353Z 11012KT 10SM FEW140 SCT180 SCT250 21/10 A3015 RMK AO2 SLP197 T02060100

METARs EXPIRÉS :
  • 041253Z 09005KT 10SM FEW140 SCT180 SCT250 18/11 A3014 RMK AO2 SLP195 T01830111
  • 041153Z 08008KT 10SM FEW150 SCT180 BKN250 17/11 A3013 RMK AO2 SLP193 T01670111 10200 20161 53004

TAF KICT
Valide du 04 à 12h jusqu'au 05 à 12h UTC


041136Z 0412/0512 11006KT P6SM FEW080 SCT200
FM050900 11006KT P6SM VCSH BKN100
FIR KZKC / Amérique du Nord



MET'MAP, la Météo Aéronautique d'un coup d'oeil ! - Copyright ORBIFLY Décembre 2007 - Disclaimer

ORBIFLY MET'MAP TEAM :

Programmation & Développement : Alexandra Zaïnal
Sur une idée originale de : Baudouin d'Aumeries
Assistance à la programmation : Marc-Olivier Méhu
Soutien technique & logistique : Manuel Goepfert

Contact : metmap@orbifly.com




SOURCES & CREDITS :

   NOAA       Earth
Advisory